Location: ??
(35.1714°N, 128.2806°E)
Time: 15:39:35
(UTC+00:00)

Aureole 1 Rocket - Pass Details

Date: 29 October 2020
Orbit: 379 x 1377 km, 73.9° (Epoch: 01 December)

Event Time Altitude Azimuth Distance (km) Brightness Sun altitude
Rises 21:03:02 0° 188° (S) 3,764 7.1 -9.4°
Reaches altitude 10° 21:05:57 10° 185° (S) 2,652 6.4 -8.8°
Maximum altitude 21:11:52 61° 106° (ESE) 861 4.2 -7.6°
Drops below altitude 10° 21:16:21 10° 26° (NNE) 2,020 5.9 -6.8°
Sets 21:18:19 0° 23° (NNE) 2,803 6.6 -6.4°
